Back to catalog

NOAA 16 DEB

AliveSSO
NORAD 41297·DEBRIS·🇺🇸 United States

Launched Sep 21, 2000 from Vandenberg Space Force Base

Loading…

Next Passes (next 24 hours)

TLE

FreshSource: Space-Track

Epoch: Sep 14, 2026, 09:47 UTC

1 41297U 00055GZ  26257.40793033  .00002530  00000-0  12679-2 0  9991
2 41297  98.9546 322.5232 0063542 159.0526 201.3272 14.16498546548656

Track NOAA 16 DEB in real time with AllMySat

Download on the App Store